Wilmington, NC

4:47 AM EDT on October 17, 2017 (GMT -0400)
Wilmington International

Weather History for KILM - September, 2014

Change the Weather History Date:

Wednesday, September 3, 2014

  Actual Average Record
Temperature  
Mean Temperature 84 °F 78 °F  
Max Temperature 91 °F 86 °F 97 °F (1926)
Min Temperature 76 °F 69 °F 55 °F (1909)
Degree Days  
Heating Degree Days 0 0  
Month to date heating degree days 0 0  
Since 1 July heating degree days 0 0  
Cooling Degree Days 19 13  
Month to date cooling degree days 55 39  
Year to date cooling degree days 1812 1662  
Growing Degree Days 33 (Base 50)    
Moisture  
Dew Point 74 °F    
Average Humidity 76    
Maximum Humidity 100    
Minimum Humidity 52    
Precipitation  
Precipitation 0.00 in 0.26 in 2.65 in (1998)
Month to date precipitation T 0.82  
Year to date precipitation 42.51 39.79  
Sea Level Pressure  
Sea Level Pressure 30.05 in    
Wind  
Wind Speed 7 mph (SSW)    
Max Wind Speed 15 mph    
Max Gust Speed 20 mph    
Visibility 10 miles    
Events      
T = Trace of Precipitation, MM = Missing Value Source: NWS Daily Summary

Daily Weather History Graph

Daily Weather History Graph

Search for Another Location

Airport or City:

Trip Planner

Search our weather history database for the weather conditions in past years. The results will help you decide how hot, cold, wet, or windy it might be!

Date:

Astronomy

Sep. 03, 2014 Rise Set
Actual Time 6:46 AM EDT 7:34 PM EDT
Civil Twilight 6:20 AM EDT 8:00 PM EDT
Nautical Twilight 5:50 AM EDT 8:30 PM EDT
Astronomical Twilight 5:19 AM EDT 9:01 PM EDT
Moon 3:06 PM EDT (9/3) 12:46 AM EDT (9/3)
Length of Visible Light 13h 39m
Length of Day
12h 48m
Waxing Gibbous, 63% of the Moon is Illuminated
Sep 3
Waxing Gibbous
Sep 8
Full
Sep 15
Last Quarter
Sep 24
New
Oct 1
First Quarter

Hourly Weather History & Observations

Time (EDT) Temp. Heat Index Dew Point Humidity Pressure Visibility Wind Dir Wind Speed Gust Speed Precip Events Conditions
12:53 AM 79.0 °F - 75.0 °F 88% 30.03 in 10.0 mi SSW 6.9 mph - N/A   Clear
1:53 AM 79.0 °F - 75.0 °F 88% 30.03 in 10.0 mi SW 6.9 mph - N/A   Clear
2:53 AM 79.0 °F - 75.0 °F 88% 30.03 in 10.0 mi SW 5.8 mph - N/A   Clear
3:53 AM 78.1 °F - 75.0 °F 90% 30.02 in 10.0 mi SSW 3.5 mph - N/A   Clear
4:53 AM 78.1 °F - 75.0 °F 90% 30.02 in 10.0 mi West 6.9 mph - N/A   Partly Cloudy
5:53 AM 77.0 °F - 75.0 °F 94% 30.02 in 10.0 mi SW 6.9 mph - N/A   Partly Cloudy
6:20 AM 77.0 °F - 75.0 °F 94% 30.03 in 10.0 mi SSW 4.6 mph - N/A   Partly Cloudy
6:53 AM 75.9 °F - 75.0 °F 97% 30.03 in 10.0 mi SW 3.5 mph - N/A   Partly Cloudy
7:53 AM 79.0 °F - 73.9 °F 84% 30.05 in 10.0 mi WSW 5.8 mph - N/A   Clear
8:53 AM 82.0 °F 86.7 °F 72.0 °F 71% 30.07 in 10.0 mi SW 6.9 mph - N/A   Clear
9:53 AM 84.0 °F 90.2 °F 73.0 °F 69% 30.07 in 10.0 mi SW 13.8 mph - N/A   Clear
10:53 AM 87.1 °F 94.5 °F 73.0 °F 63% 30.07 in 10.0 mi WSW 10.4 mph - N/A   Clear
11:53 AM 88.0 °F 95.6 °F 73.0 °F 61% 30.07 in 10.0 mi WSW 6.9 mph - N/A   Clear
12:53 PM 89.1 °F 97.0 °F 73.0 °F 59% 30.06 in 10.0 mi SW 9.2 mph - N/A   Clear
1:53 PM 90.0 °F 97.9 °F 73.0 °F 57% 30.05 in 10.0 mi South 10.4 mph 17.3 mph N/A   Partly Cloudy
2:53 PM 91.0 °F 98.2 °F 72.0 °F 53% 30.04 in 10.0 mi SSW 11.5 mph - N/A   Partly Cloudy
3:53 PM 90.0 °F 96.9 °F 72.0 °F 55% 30.03 in 10.0 mi South 11.5 mph - N/A   Scattered Clouds
4:53 PM 89.1 °F 97.0 °F 73.0 °F 59% 30.02 in 10.0 mi SSW 12.7 mph - N/A   Partly Cloudy
5:53 PM 87.1 °F 94.5 °F 73.0 °F 63% 30.02 in 10.0 mi SSW 10.4 mph - N/A   Clear
6:53 PM 84.0 °F 91.2 °F 73.9 °F 72% 30.04 in 10.0 mi South 8.1 mph - N/A   Partly Cloudy
7:53 PM 81.0 °F 85.8 °F 73.0 °F 77% 30.07 in 10.0 mi SSW 4.6 mph - N/A   Clear
8:53 PM 81.0 °F 86.7 °F 75.0 °F 82% 30.10 in 10.0 mi SSW 4.6 mph - N/A   Clear
9:53 PM 80.1 °F 85.1 °F 75.0 °F 85% 30.11 in 10.0 mi SSW 4.6 mph - N/A   Clear
10:53 PM 80.1 °F 85.1 °F 75.0 °F 85% 30.12 in 10.0 mi South 5.8 mph - N/A   Clear
11:53 PM 79.0 °F - 75.0 °F 88% 30.12 in 10.0 mi South 3.5 mph - N/A   Clear